Theta_e
325 324 328 330 331 329 330 331 331 332 334 333 333 332 332 332 333 333 334 335 335 334 335 335 335 335 335 334 333 332 332 332 330 332 334 335 336 334 332 333 337 338 333
325 323 325 327 327 328 328 329 329 328 330 332 334 333 333 332 332 332 333 335 335 336 335 335 334 331 330 330 330 331 331 332 331 329 328 328 331 334 330 331 334 335 334
325 324 328 327 328 332 333 331 331 331 330 328 328 330 331 331 330 329 329 332 335 335 336 334 329 329 330 329 330 331 332 333 332 331 327 333 333 326 326 326 324 325 326
331 329 330 329 328 327 329 327 326 329 331 329 325 326 327 326 326 325 325 326 331 334 334 334 329 329 329 329 330 332 332 332 333 332 333 332 333 332 330 329 328 328 328
330 330 330 330 326 324 326 325 324 328 331 330 327 325 327 331 331 330 328 325 325 326 330 329 328 329 329 329 329 331 332 332 331 333 333 331 333 334 334 332 332 331 331
328 328 329 328 321 319 318 323 324 326 330 332 330 332 332 333 332 331 331 331 329 328 329 328 325 325 326 327 328 329 331 331 331 334 333 330 332 331 332 330 330 331 332
328 327 326 326 324 319 315 314 320 324 327 331 333 332 332 331 331 330 330 330 330 330 330 331 329 327 326 325 325 326 329 331 332 333 334 332 331 324 329 328 328 329 329
321 326 326 324 320 316 312 309 312 321 323 328 331 330 328 325 325 325 325 327 327 327 328 329 330 330 330 328 326 325 326 327 327 330 333 334 330 324 323 322 322 323 322
322 325 322 319 315 313 310 306 309 316 320 322 327 325 321 319 319 319 319 320 321 321 322 324 327 328 328 328 327 329 328 327 327 327 330 335 333 327 326 322 320 320 320
317 317 315 314 312 310 307 304 309 313 314 317 318 319 319 317 316 315 313 311 313 316 318 319 320 322 322 323 325 327 330 328 329 329 330 333 332 329 327 326 322 320 319
312 312 312 312 310 307 304 305 308 310 311 311 310 311 311 309 307 305 304 304 305 307 310 313 315 317 318 319 319 322 326 330 332 333 332 330 332 331 328 328 324 323 321
311 311 311 310 308 305 302 304 307 308 306 304 305 305 304 302 299 298 298 299 301 303 305 306 307 308 311 313 315 317 316 321 326 332 333 330 331 331 329 330 329 325 323
309 309 310 309 306 303 300 302 305 306 305 303 302 302 301 298 297 297 297 297 297 298 298 299 300 301 304 305 306 308 311 314 317 326 330 330 330 331 331 331 331 330 328
309 308 309 308 305 302 300 299 301 302 301 300 299 299 298 298 299 300 300 300 300 300 300 299 305 311 312 311 310 314 313 315 319 325 326 326 329 330 331 331 331 331 331
309 308 308 307 305 303 302 300 299 299 298 298 298 299 300 300 301 301 301 302 302 303 302 302 310 311 310 312 313 313 315 316 319 322 321 324 328 328 329 331 331 330 332
309 308 307 307 306 304 303 300 299 299 299 300 301 301 303 303 304 304 305 305 305 305 303 303 304 307 307 309 309 309 308 308 308 308 308 308 310 318 324 325 327 328 330
308 308 307 307 307 304 305 304 302 302 303 303 304 305 305 305 306 306 306 306 307 307 307 306 305 305 307 307 307 307 306 305 304 304 304 304 305 307 314 319 320 323 327
308 308 308 308 307 305 305 305 305 305 304 304 304 305 305 305 305 306 306 306 306 307 307 307 307 306 305 306 306 306 306 306 305 304 303 303 303 303 307 317 321 322 322
307 308 307 306 308 307 305 305 305 305 305 305 305 305 305 305 305 305 306 306 306 306 307 307 307 307 306 305 305 304 305 305 304 303 304 304 303 303 303 311 317 317 318
306 307 306 306 307 307 305 305 306 306 306 305 305 305 305 305 305 305 306 306 307 307 307 307 307 307 307 306 305 305 306 306 306 304 304 304 304 304 303 305 311 316 308
305 306 306 305 307 306 306 305 306 307 306 306 307 307 307 305 305 305 306 307 307 307 306 307 307 307 307 306 305 305 305 304 306 305 305 305 305 305 305 304 305 309 310
306 305 306 305 305 306 305 305 305 306 306 307 308 307 307 306 306 306 306 304 304 303 302 302 304 305 306 306 306 305 306 305 304 304 305 305 305 305 305 304 304 304 305
306 306 306 306 306 306 307 305 305 306 306 308 307 307 306 305 305 304 302 299 297 296 298 300 300 302 303 304 306 305 307 306 306 305 305 305 305 304 304 305 305 305 304
307 307 306 306 306 306 307 305 306 307 308 308 305 304 302 302 300 297 295 294 293 293 294 296 297 298 299 299 302 302 305 305 306 305 304 303 303 304 304 303 304 304 304
307 307 307 306 306 306 306 306 307 306 307 307 304 302 300 297 295 294 293 292 291 293 293 293 294 295 294 295 295 297 299 300 302 301 303 301 299 301 301 300 303 303 303
307 307 307 306 306 306 306 306 306 307 308 306 303 299 297 295 293 292 291 291 290 291 293 294 294 293 293 293 293 293 294 295 296 296 297 296 297 297 295 300 300 302 302
Wind_Speed
12 12 13 13 14 13 15 16 15 15 16 16 14 14 15 15 17 18 19 18 17 15 15 14 14 13 13 13 14 13 13 12 11 11 11 11 11 12 14 14 15 12 12
9 10 9 10 12 13 13 14 14 14 13 13 13 13 13 14 15 17 19 19 18 15 13 12 11 10 10 10 11 11 10 7 8 9 9 9 9 8 9 10 12 9 10
11 11 12 15 14 14 15 15 15 15 15 13 12 12 13 13 14 15 16 16 15 14 12 10 8 8 8 9 11 12 9 5 2 6 7 6 6 6 5 6 7 7 7
12 12 12 14 14 14 15 14 14 14 13 12 11 12 13 14 15 15 14 14 13 13 12 11 9 8 8 8 11 13 10 6 4 3 5 5 4 4 5 5 6 7 6
13 13 14 15 15 17 16 14 13 12 13 13 12 13 13 14 14 14 13 12 11 11 11 9 8 8 8 8 10 12 11 7 6 4 3 3 4 2 3 3 4 4 7
11 12 12 13 15 16 17 15 13 12 11 12 12 12 11 11 12 13 13 11 10 9 10 8 6 6 6 7 7 8 8 8 6 3 2 2 2 1 0 0 3 2 3
8 8 10 9 12 14 16 16 13 12 11 11 11 10 9 9 10 10 11 11 11 11 10 10 8 6 6 5 4 3 3 3 3 2 2 1 0 1 0 1 1 1 1
7 6 8 9 12 14 16 16 13 11 10 10 10 9 9 10 10 10 12 11 11 11 11 10 9 8 6 5 4 2 2 3 4 3 3 3 4 2 1 1 2 2 2
9 9 10 11 12 14 16 15 13 12 11 10 10 10 10 12 13 12 12 12 11 11 11 11 10 9 8 6 5 4 2 2 2 3 4 4 5 4 3 2 2 2 2
13 12 12 11 12 14 15 15 13 15 15 15 14 12 12 12 13 13 13 13 13 12 11 10 11 9 8 8 6 5 4 3 2 3 4 4 5 5 4 4 3 3 4
13 12 11 11 13 14 15 15 15 14 15 15 15 14 14 15 15 14 14 13 13 13 13 12 11 10 9 8 9 7 5 6 6 5 4 6 6 7 5 5 4 5 5
10 11 10 11 13 13 14 15 17 17 18 18 18 17 18 18 19 18 18 17 17 16 15 14 14 13 13 12 10 10 8 8 6 7 6 6 6 7 6 8 6 6 6
9 10 10 11 12 13 14 15 17 18 18 18 19 18 18 20 21 23 24 24 23 23 22 19 18 17 15 14 12 11 10 8 7 6 8 7 2 5 4 8 11 10 8
9 10 10 11 12 14 15 16 15 17 17 18 19 20 23 25 26 26 27 27 28 28 27 24 21 19 18 16 15 13 10 9 7 7 8 6 3 5 7 8 9 12 13
9 10 10 11 12 14 15 15 17 18 19 20 23 24 26 27 28 26 28 26 27 24 26 24 21 21 19 17 17 17 16 15 13 10 10 9 5 1 4 4 8 12 13
10 10 11 11 12 13 15 17 18 20 21 23 25 25 25 25 26 25 24 23 24 25 26 24 23 18 17 16 18 18 19 20 20 18 16 17 19 12 4 5 7 7 9
11 12 12 11 10 11 13 16 18 20 21 22 22 22 22 22 23 22 22 22 23 22 22 23 21 18 15 14 15 15 16 18 19 20 19 18 18 20 16 12 8 8 8
11 13 10 9 9 9 11 13 15 16 17 17 17 17 17 18 18 20 19 20 20 19 19 21 22 20 17 12 10 11 11 14 16 18 18 18 18 20 21 16 13 13 9
12 13 10 9 10 9 9 9 10 10 10 11 11 12 12 12 13 14 16 16 17 16 17 17 18 19 19 17 10 6 4 11 14 14 16 17 19 18 17 18 14 14 15
13 13 9 8 13 11 10 8 7 6 6 7 7 7 6 7 9 11 13 15 16 14 14 16 14 14 15 18 15 12 6 5 8 10 14 14 16 17 17 18 15 12 14
15 13 11 12 14 13 12 9 6 4 4 4 5 5 3 4 7 9 11 13 14 14 15 17 14 14 13 15 16 17 6 5 2 10 9 12 16 16 15 16 15 15 12
17 16 14 13 14 15 12 11 7 5 4 4 5 6 6 6 8 11 12 13 15 13 16 17 16 14 13 12 11 12 5 8 3 18 9 10 15 16 14 14 14 14 14
19 19 18 15 14 13 11 12 10 7 6 4 5 8 10 9 10 10 11 13 15 16 15 15 15 15 13 12 11 5 5 4 20 0 12 12 16 17 15 13 13 13 13
24 21 18 17 15 14 12 16 14 10 8 6 7 8 8 8 9 10 12 13 15 14 14 12 12 11 11 11 7 10 6 7 5 8 9 18 16 17 15 15 14 12 12
25 25 21 18 18 15 16 16 14 13 10 10 8 7 6 8 9 11 13 15 15 13 12 11 10 10 9 9 8 9 8 9 3 8 11 16 18 13 13 17 13 11 12
30 28 25 21 20 18 17 14 15 14 13 11 9 6 5 7 8 10 12 13 13 12 11 9 9 9 10 9 9 10 9 7 10 9 12 18 18 17 21 15 14 13 13
Wind_Direction
357 4 9 19 27 33 39 40 43 43 45 47 52 52 51 51 51 51 51 52 58 57 59 64 67 67 65 59 48 45 50 60 70 80 82 88 92 98 102 105 94 100 105
7 16 19 25 27 35 40 46 41 42 43 48 52 57 56 54 51 50 51 55 64 63 62 62 63 65 62 51 37 23 16 23 50 68 81 82 92 97 108 110 113 112 104
43 41 41 48 47 45 45 45 41 38 38 40 44 48 49 51 51 49 50 59 62 63 61 66 71 70 59 43 30 20 10 11 30 54 70 75 83 89 95 103 106 107 112
60 53 51 57 52 49 51 50 50 52 45 40 55 57 56 50 47 45 46 49 52 53 47 44 49 45 40 38 30 23 37 57 64 66 44 55 61 63 86 82 90 98 102
67 59 58 65 55 50 49 50 50 52 53 48 66 63 60 55 51 47 42 45 46 48 43 38 34 32 27 23 23 32 52 64 64 88 69 56 58 78 61 58 54 81 104
70 70 65 61 57 55 50 48 51 53 53 59 68 71 66 60 56 46 44 40 45 46 42 44 43 26 16 13 15 22 37 54 62 86 91 59 101 139 167 147 58 73 92
76 75 67 62 58 51 44 41 43 52 55 62 89 81 69 59 52 46 46 40 39 38 37 38 39 35 26 16 10 2 13 17 17 330 320 319 194 55 279 299 281 208 204
79 102 86 72 57 46 40 38 38 45 53 61 77 85 73 61 58 46 39 33 28 27 30 33 37 38 34 26 32 12 297 295 320 327 294 277 277 312 317 280 241 240 242
88 105 91 72 56 42 33 35 43 51 59 70 73 66 61 57 52 47 42 38 33 32 30 29 31 32 36 31 25 41 24 287 285 281 314 293 270 272 273 282 255 244 250
87 93 87 71 50 38 35 44 58 66 70 71 72 69 63 54 47 41 36 33 29 27 26 26 29 31 30 24 22 22 29 26 4 317 307 297 257 252 258 267 262 251 251
84 89 85 66 48 45 51 57 63 67 65 63 60 54 50 48 44 42 40 36 36 33 30 28 21 17 17 20 18 15 17 13 5 350 331 282 261 238 252 262 273 258 250
80 88 90 73 58 53 61 67 68 67 64 62 58 55 55 54 53 53 52 48 45 40 35 28 19 13 6 4 358 359 6 3 3 4 352 304 262 231 247 263 287 274 258
106 102 98 82 71 67 69 71 72 70 67 64 61 59 58 58 56 54 52 49 46 40 33 28 24 23 18 12 4 354 346 359 5 7 360 336 311 213 249 269 271 282 271
119 114 111 95 80 71 72 75 79 77 74 70 68 67 65 63 60 58 55 51 47 43 39 35 35 35 32 27 25 24 18 18 18 29 18 4 350 226 228 253 251 255 264
127 128 121 106 93 82 76 78 83 82 80 79 77 73 71 69 64 59 55 50 44 39 38 36 41 43 42 39 41 43 46 47 50 63 50 42 28 9 235 249 262 267 262
143 136 131 124 102 88 83 83 86 87 85 83 81 77 72 67 63 58 53 47 42 38 38 36 38 43 44 47 51 55 58 60 59 57 51 47 49 39 8 314 309 309 281
152 150 140 132 119 102 92 89 88 88 87 84 82 76 69 64 59 54 50 47 41 34 32 34 35 37 37 40 49 53 57 58 56 51 47 41 35 37 35 25 19 349 318
163 162 156 153 142 131 110 103 96 92 88 84 79 73 65 59 55 51 46 42 37 34 32 28 28 29 28 23 28 40 49 48 47 46 42 37 30 27 32 30 31 19 1
179 173 173 178 174 160 142 120 107 99 89 79 71 64 56 51 45 42 37 30 24 21 23 23 20 19 16 12 354 331 10 38 36 37 36 34 30 27 23 24 33 28 27
181 181 186 175 176 173 166 144 120 102 79 59 45 38 34 30 24 20 18 14 13 14 13 11 10 9 7 359 353 340 281 320 16 27 27 28 25 24 22 22 23 20 31
186 188 184 180 179 180 180 173 159 137 96 62 42 17 4 5 1 7 16 21 25 26 20 14 3 353 354 357 343 344 315 314 341 6 11 16 15 13 14 16 18 21 10
195 195 190 184 185 189 193 186 176 156 108 74 47 59 64 58 49 40 36 33 28 23 20 17 14 360 346 352 342 329 333 324 284 334 348 358 359 356 356 359 7 8 7
202 199 198 195 195 200 207 195 184 167 145 125 104 86 76 69 56 42 33 29 23 20 18 15 11 10 351 352 352 337 326 322 326 9 335 345 345 345 344 346 347 354 0
205 201 200 200 200 202 203 190 193 190 176 166 132 110 94 69 50 37 29 27 24 22 18 16 9 9 5 356 355 352 333 312 316 311 304 321 331 332 339 339 334 337 346
205 202 200 200 201 201 191 192 196 187 182 163 148 126 93 68 51 40 27 22 21 23 21 17 14 15 10 358 355 346 333 323 321 299 304 321 318 319 319 330 329 327 333
207 205 202 203 203 202 201 206 198 194 181 166 161 136 97 67 49 32 26 20 17 17 19 13 12 16 13 7 358 355 351 342 322 315 309 310 314 313 315 306 317 320 326